| time (UTC) | temp C | wind direction | speed KPH | gust KPH | rain 1hr cm | rain 24hr cm | rain mn cm | humidity % | barometer mb |
| 20260504081530 | 5 | 360 | 4.8 | 14.5 | 0.00 | 0.00 | 0.00 | 65 | 1018.6 |
| 20260504044525 | 5 | 360 | 9.7 | 17.7 | 0.00 | 0.00 | 0.00 | 61 | 1019.8 |
| 20260504043024 | 5 | 360 | 1.6 | 8.0 | 0.00 | 0.00 | 0.00 | 60 | 1019.8 |
| 20260504041524 | 4 | 360 | 6.4 | 16.1 | 0.00 | 0.00 | 0.00 | 61 | 1019.7 |
| 20260504040142 | 5 | 360 | 1.6 | 8.0 | 0.00 | 0.00 | 0.00 | 59 | 1019.7 |
| 20260504034502 | 4 | 360 | 3.2 | 12.9 | 0.00 | 0.00 | 0.00 | 60 | 1019.9 |
| 20260504033056 | 3 | 360 | 6.4 | 16.1 | 0.00 | 0.00 | 0.00 | 63 | 1019.6 |
| 20260504031556 | 3 | 360 | 4.8 | 8.0 | 0.00 | 0.00 | 0.00 | 61 | 1019.7 |
| 20260504030044 | 3 | 360 | 0.0 | 3.2 | 0.00 | 0.00 | 0.00 | 61 | 1019.8 |
| 20260504024526 | 4 | 360 | 0.0 | 4.8 | 0.00 | 0.00 | 0.00 | 59 | 1019.9 |
| 20260504023022 | 4 | 360 | 4.8 | 8.0 | 0.00 | 0.00 | 0.00 | 58 | 1019.8 |
| 20260504021515 | 3 | 360 | 3.2 | 6.4 | 0.00 | 0.00 | 0.00 | 59 | 1019.6 |
| 20260504020015 | 4 | 183 | 4.8 | 9.7 | 0.00 | 0.00 | 0.00 | 58 | 1019.7 |
| 20260504014504 | 4 | 165 | 4.8 | 9.7 | 0.00 | 0.00 | 0.00 | 57 | 1019.5 |
| 20260504013158 | 5 | 184 | 3.2 | 6.4 | 0.00 | 0.00 | 0.00 | 56 | 1019.5 |
| 20260504011552 | 3 | 184 | 9.7 | 16.1 | 0.00 | 0.00 | 0.00 | 60 | 1019.2 |
| 20260504010049 | 5 | 360 | 11.3 | 16.1 | 0.00 | 0.00 | 0.00 | 56 | 1019.3 |
| 20260504004525 | 5 | 360 | 11.3 | 16.1 | 0.00 | 0.00 | 0.00 | 56 | 1019.0 |
| 20260504003020 | 5 | 191 | 12.9 | 16.1 | 0.00 | 0.00 | 0.00 | 57 | 1018.8 |
| 20260504001514 | 6 | 360 | 14.5 | 17.7 | 0.00 | 0.00 | 0.00 | 54 | 1018.7 |
| 20260504000007 | 8 | 360 | 14.5 | 22.5 | 0.00 | 0.00 | 0.00 | 48 | 1018.7 |
| 20260503234628 | 9 | 202 | 8.0 | 12.9 | 0.00 | 0.00 | 0.00 | 45 | 1018.6 |
| 20260503233053 | 10 | 360 | 11.3 | 22.5 | 0.00 | 0.00 | 0.00 | 41 | 1018.8 |
| 20260503231550 | 10 | 360 | 12.9 | 20.9 | 0.00 | 0.00 | 0.00 | 39 | 1018.9 |
| 20260503230044 | 11 | 199 | 8.0 | 19.3 | 0.00 | 0.00 | 0.00 | 38 | 1018.9 |
| 20260503224538 | 11 | 213 | 12.9 | 19.3 | 0.00 | 0.00 | 0.00 | 37 | 1018.9 |
| 20260503223033 | 11 | 218 | 12.9 | 20.9 | 0.00 | 0.00 | 0.00 | 36 | 1018.9 |
| 20260503221534 | 11 | 232 | 12.9 | 25.7 | 0.00 | 0.00 | 0.00 | 34 | 1018.9 |
| 20260503220025 | 12 | 360 | 16.1 | 20.9 | 0.00 | 0.00 | 0.00 | 34 | 1019.0 |
| 20260503214523 | 12 | 211 | 14.5 | 24.1 | 0.00 | 0.00 | 0.00 | 33 | 1019.0 |
| 20260503213020 | 12 | 115 | 8.0 | 29.0 | 0.00 | 0.00 | 0.00 | 34 | 1019.3 |
| 20260503211552 | 12 | 360 | 20.9 | 30.6 | 0.00 | 0.00 | 0.00 | 34 | 1019.4 |
| 20260503210045 | 12 | 360 | 12.9 | 22.5 | 0.00 | 0.00 | 0.00 | 34 | 1019.4 |
| 20260503204527 | 11 | 243 | 14.5 | 25.7 | 0.00 | 0.00 | 0.00 | 34 | 1019.5 |
| 20260503203021 | 11 | 257 | 11.3 | 25.7 | 0.00 | 0.00 | 0.00 | 35 | 1019.7 |
| 20260503201515 | 11 | 360 | 16.1 | 25.7 | 0.00 | 0.00 | 0.00 | 35 | 1019.8 |
| 20260503200008 | 11 | 360 | 12.9 | 30.6 | 0.00 | 0.00 | 0.00 | 35 | 1020.2 |
| 20260503193154 | 11 | 49 | 9.7 | 25.7 | 0.00 | 0.00 | 0.00 | 39 | 1020.5 |
| 20260503191549 | 11 | 209 | 6.4 | 24.1 | 0.00 | 0.00 | 0.00 | 35 | 1020.7 |
| 20260503190039 | 11 | 360 | 12.9 | 20.9 | 0.00 | 0.00 | 0.00 | 37 | 1021.0 |
| 20260503184615 | 10 | 273 | 6.4 | 22.5 | 0.00 | 0.00 | 0.00 | 36 | 1021.2 |
| 20260503183013 | 11 | 314 | 4.8 | 14.5 | 0.00 | 0.00 | 0.00 | 36 | 1021.3 |
| 20260503181646 | 11 | 360 | 8.0 | 24.1 | 0.00 | 0.00 | 0.00 | 39 | 1021.2 |
| 20260503180035 | 10 | 317 | 6.4 | 17.7 | 0.00 | 0.00 | 0.00 | 38 | 1021.4 |
| 20260503174616 | 10 | 355 | 1.6 | 14.5 | 0.00 | 0.00 | 0.00 | 36 | 1021.8 |
| 20260503173112 | 10 | 5 | 6.4 | 17.7 | 0.00 | 0.00 | 0.00 | 37 | 1021.9 |
| 20260503171658 | 9 | 360 | 3.2 | 12.9 | 0.00 | 0.00 | 0.00 | 35 | 1021.9 |